| time (UTC) | temp F | wind direction | speed MPH | gust MPH | rain 1hr in | rain 24hr in | rain mn in | humidity % | barometer mb |
| 20260504003053 | 50 | 293 | 4.0 | 10.0 | 0.00 | 0.00 | 0.00 | 60 | 1007.6 |
| 20260504001550 | 49 | 292 | 4.0 | 11.0 | 0.00 | 0.00 | 0.00 | 61 | 1007.8 |
| 20260504000116 | 49 | 282 | 5.0 | 11.0 | 0.00 | 0.00 | 0.00 | 61 | 1007.7 |
| 20260503234557 | 49 | 281 | 3.0 | 10.0 | 0.00 | 0.00 | 0.00 | 61 | 1007.8 |
| 20260503233051 | 50 | 299 | 3.0 | 11.0 | 0.00 | 0.00 | 0.00 | 61 | 1007.8 |
| 20260503231555 | 50 | 327 | 5.0 | 12.0 | 0.00 | 0.00 | 0.00 | 60 | 1007.9 |
| 20260503230051 | 50 | 275 | 3.0 | 10.0 | 0.00 | 0.00 | 0.00 | 60 | 1008.0 |
| 20260503224552 | 50 | 317 | 3.0 | 9.0 | 0.00 | 0.00 | 0.00 | 60 | 1008.0 |
| 20260503223051 | 51 | 341 | 5.0 | 10.0 | 0.00 | 0.00 | 0.00 | 58 | 1008.0 |
| 20260503221558 | 51 | 251 | 3.0 | 9.0 | 0.00 | 0.00 | 0.00 | 57 | 1008.1 |
| 20260503220050 | 52 | 0 | 3.0 | 10.0 | 0.00 | 0.00 | 0.00 | 55 | 1008.2 |
| 20260503214550 | 52 | 277 | 3.0 | 9.0 | 0.00 | 0.00 | 0.00 | 54 | 1008.3 |
| 20260503213105 | 53 | 288 | 3.0 | 9.0 | 0.00 | 0.00 | 0.00 | 53 | 1008.5 |
| 20260503211544 | 53 | 304 | 3.0 | 8.0 | 0.00 | 0.00 | 0.00 | 54 | 1008.6 |
| 20260503210049 | 53 | 282 | 3.0 | 8.0 | 0.00 | 0.00 | 0.00 | 53 | 1008.7 |
| 20260503204551 | 54 | 294 | 3.0 | 8.0 | 0.00 | 0.00 | 0.00 | 52 | 1008.8 |
| 20260503203106 | 54 | 293 | 3.0 | 7.0 | 0.00 | 0.00 | 0.00 | 52 | 1008.8 |
| 20260503201548 | 54 | 271 | 0.0 | 6.0 | 0.00 | 0.00 | 0.00 | 51 | 1009.0 |
| 20260503200051 | 54 | 0 | 0.0 | 6.0 | 0.00 | 0.00 | 0.00 | 52 | 1009.2 |
| 20260503194555 | 54 | 211 | 0.0 | 5.0 | 0.00 | 0.00 | 0.00 | 51 | 1009.1 |
| 20260503193051 | 54 | 202 | 0.0 | 2.0 | 0.00 | 0.00 | 0.00 | 51 | 1009.3 |
| 20260503191547 | 55 | 202 | 1.0 | 3.0 | 0.00 | 0.00 | 0.00 | 51 | 1009.4 |
| 20260503190050 | 54 | 202 | 1.0 | 3.0 | 0.00 | 0.00 | 0.00 | 51 | 1009.3 |
| 20260503184546 | 54 | 202 | 1.0 | 3.0 | 0.00 | 0.00 | 0.00 | 52 | 1009.3 |
| 20260503183048 | 55 | 202 | 1.0 | 3.0 | 0.00 | 0.00 | 0.00 | 51 | 1009.3 |
| 20260503181559 | 55 | 201 | 0.0 | 2.0 | 0.00 | 0.00 | 0.00 | 51 | 1009.3 |
| 20260503180048 | 55 | 0 | 0.0 | 2.0 | 0.00 | 0.00 | 0.00 | 46 | 1009.1 |
| 20260503174547 | 56 | 0 | 0.0 | 3.0 | 0.00 | 0.00 | 0.00 | 45 | 1009.1 |
| 20260503173057 | 56 | 202 | 1.0 | 3.0 | 0.00 | 0.00 | 0.00 | 44 | 1008.9 |
| 20260503171549 | 57 | 202 | 2.0 | 4.0 | 0.00 | 0.00 | 0.00 | 44 | 1008.9 |
| 20260503081549 | 55 | 5 | 4.0 | 13.0 | 0.00 | 0.00 | 0.00 | 47 | 1012.6 |
| 20260503071600 | 53 | 124 | 6.0 | 14.0 | 0.00 | 0.00 | 0.00 | 48 | 1012.5 |
| 20260503060104 | 50 | 132 | 4.0 | 12.0 | 0.00 | 0.00 | 0.00 | 58 | 1012.5 |
| 20260503054547 | 49 | 41 | 4.0 | 10.0 | 0.00 | 0.00 | 0.00 | 60 | 1012.4 |
| 20260503053053 | 48 | 83 | 4.0 | 8.0 | 0.00 | 0.00 | 0.00 | 62 | 1012.3 |
| 20260503051550 | 47 | 36 | 2.0 | 10.0 | 0.00 | 0.00 | 0.00 | 64 | 1012.3 |
| 20260503050055 | 46 | 61 | 2.0 | 9.0 | 0.00 | 0.00 | 0.00 | 67 | 1012.3 |
| 20260503044551 | 46 | 92 | 2.0 | 7.0 | 0.00 | 0.00 | 0.00 | 69 | 1012.1 |
| 20260503043055 | 45 | 81 | 2.0 | 6.0 | 0.00 | 0.00 | 0.00 | 71 | 1012.0 |
| 20260503041550 | 44 | 58 | 2.0 | 7.0 | 0.00 | 0.00 | 0.00 | 73 | 1012.0 |
| 20260503040052 | 43 | 42 | 1.0 | 4.0 | 0.00 | 0.00 | 0.00 | 76 | 1011.9 |
| 20260503034551 | 42 | 35 | 1.0 | 5.0 | 0.00 | 0.00 | 0.00 | 76 | 1011.8 |
| 20260503033104 | 42 | 36 | 1.0 | 4.0 | 0.00 | 0.00 | 0.00 | 77 | 1011.7 |
| 20260503031545 | 42 | 0 | 2.0 | 5.0 | 0.00 | 0.00 | 0.00 | 76 | 1011.6 |
| 20260503030048 | 42 | 40 | 2.0 | 5.0 | 0.00 | 0.00 | 0.00 | 76 | 1011.4 |
| 20260503024552 | 42 | 24 | 2.0 | 8.0 | 0.00 | 0.00 | 0.00 | 75 | 1011.5 |
| 20260503023100 | 42 | 69 | 2.0 | 5.0 | 0.00 | 0.00 | 0.00 | 75 | 1011.3 |
| 20260503021551 | 42 | 69 | 2.0 | 8.0 | 0.00 | 0.00 | 0.00 | 75 | 1011.2 |
| 20260503020046 | 43 | 36 | 1.0 | 5.0 | 0.00 | 0.00 | 0.00 | 75 | 1011.3 |
| 20260503014549 | 43 | 37 | 2.0 | 6.0 | 0.00 | 0.00 | 0.00 | 75 | 1011.3 |
| 20260503013045 | 43 | 16 | 2.0 | 5.0 | 0.00 | 0.00 | 0.00 | 75 | 1011.4 |
| 20260503011601 | 43 | 31 | 2.0 | 8.0 | 0.00 | 0.00 | 0.00 | 75 | 1011.4 |
| 20260503010054 | 43 | 22 | 2.0 | 8.0 | 0.00 | 0.00 | 0.00 | 76 | 1011.5 |
| 20260503004607 | 44 | 33 | 2.0 | 8.0 | 0.00 | 0.00 | 0.00 | 77 | 1011.5 |